This is the latest recevied weather packets stored in our database for station/object SP5QWJ. If no packets are shown the sender has not sent any weather packets the latest 10 day(s).
| Time | Temp. | Humidity | Pressure | Rain* | Wind** | Luminosity | Snow |
|---|---|---|---|---|---|---|---|
| 1778194938 | 11.67° C | 100% | 1014.7 hPa | - | - | - | - |
| 1778193114 | 12.22° C | 100% | 1014.6 hPa | - | - | - | - |
| 1778191291 | 12.22° C | 100% | 1014.3 hPa | - | - | - | - |
| 1778189469 | 12.22° C | 100% | 1014.2 hPa | - | - | - | - |
| 1778187646 | 12.22° C | 100% | 1014 hPa | - | - | - | - |
| 1778184517 | 12.78° C | 100% | 1014.1 hPa | - | - | - | - |
| 1778183605 | 12.78° C | 100% | 1013.9 hPa | - | - | - | - |
| 1778182694 | 12.78° C | 100% | 1013.8 hPa | - | - | - | - |
| 1778181783 | 12.78° C | 100% | 1013.7 hPa | - | - | - | - |
| 1778180872 | 12.78° C | 100% | 1013.5 hPa | - | - | - | - |
| 1778179960 | 12.78° C | 100% | 1013.2 hPa | - | - | - | - |
| 1778079642 | 24.44° C | 50% | 1004.4 hPa | - | - | - | - |
| 1778078731 | 24.44° C | 50% | 1004.4 hPa | - | - | - | - |
| 1778077819 | 23.89° C | 50% | 1004.4 hPa | - | - | - | - |
| 1778076908 | 24.44° C | 49% | 1004.4 hPa | - | - | - | - |
| 1778075997 | 25° C | 48% | 1004.3 hPa | - | - | - | - |
| 1778075084 | 24.44° C | 48% | 1004.3 hPa | - | - | - | - |
| 1778074173 | 25.56° C | 47% | 1004.3 hPa | - | - | - | - |
| 1778073262 | 25.56° C | 49% | 1004.1 hPa | - | - | - | - |
| 1778072350 | 24.44° C | 49% | 1004.2 hPa | - | - | - | - |
| 1778071439 | 25° C | 49% | 1004.2 hPa | - | - | - | - |
| 1778070527 | 25.56° C | 49% | 1004.4 hPa | - | - | - | - |
| 1778068705 | 25° C | 49% | 1004.4 hPa | - | - | - | - |
| 1778067792 | 25° C | 49% | 1004.4 hPa | - | - | - | - |
| 1778066881 | 24.44° C | 48% | 1004.3 hPa | - | - | - | - |
* Rain since midnight (hover to see other rain measurements)
** Current wind speed in m/s (hover to see current wind gust speed)